Погода в Жилине

Россия / Пермский край     57°28′14″N   56°47′17″E
темп.,
°C
ветер,
м/с
пор.,
м/с
влажн.,
%
обл.,
%
осадки,
мм/ч
давл.,
гПа
погр.,
м
6 марта, сб
сб623:00−13з499232 0.0 1004151
02:00−14зюз369410 0.0 100595
05:00−15зюз349432 0.0 100764
08:00−13зюз4109395 0.0 1007348
11:00−11зсз588595 0.1 1008801
14:00−10з5681100 0.1 1009876
17:00−10з4584100 0.1 1010772
20:00−15зюз349291 0.0 101140
7 марта, вс
вс723:00−18зюз339546 0.0 101121
02:00−19юз229868 0.0 101120
05:00−18юз239778 0.1 101129
08:00−18ююз229790 0.1 101032
11:00−14юз239092 0.2 1010325
14:00−12юз2281100 0.1 1009679
17:00−11зюз2384100 0.3 1007598
20:00−16зюз239096 0.0 100820
8 марта, пн
пн823:00−18ююз239675 0.1 100823
02:00−20ю349958 0.0 100743
05:00−19ююв359965 0.0 1005121
08:00−15юв51096100 0.4 1002439
11:00−11ю61092100 1.1 1000644
14:00−7ю71192100 0.6 998913
17:00−4ююз6986100 1.1 9971030
20:00−9юз3484100 0.0 99745
9 марта, вт
вт923:00−10ю4791100 0.0 998131
02:00−11ююз4895100 0.0 998168
05:00−13ююз3495100 0.0 99976
08:00−13юз2395100 0.1 100067
11:00−10зюз249084 0.2 1002371
14:00−8юз4587100 0.1 1005726
17:00−8зюз5784100 0.3 1006809
20:00−12з3594100 0.1 1008104
10 марта, ср
ср1023:00−14зсз3396100 0.3 101067
02:00−17ссз3696100 0.1 1011152
05:00−22сз339799 0.1 101339
08:00−24ссз339877 0.0 101434
11:00−22ссз359387 0.0 1015296
14:00−18ссз348357 0.0 1016459
17:00−18ссз458559 0.0 1015512
20:00−23ссз339215 0.0 101622